User: anonymous   Login
Location: Colebrook
(42.0017°N, 73.0973°W)
Time: 04:55:10
(UTC-04:00)
Language:

A-11 Canister half - Orbit

View from above orbital plane
View from above orbital plane
View from above satellite
View from above satellite

Ground track
Ground track

The orbit data is extracted from the following two-line orbital elements,

1 00051U 60009C   21293.67097419 -.00000096  00000-0 -10908-3 0  9999
2 00051  47.2127 270.8093 0105904 181.5141 178.5338 12.18272300723856
Epoch (UTC): 20 October 2021 16:06:12
Eccentricity: 0.0105904
inclination: 47.2127°
perigee height: 1515 km
apogee height: 1684 km
right ascension of ascending node: 270.8093°
argument of perigee: 181.5141°
revolutions per day: 12.18272300
mean anomaly at epoch: 178.5338°
orbit number at epoch: 72385

The dashed part of the orbit path shows where the satellite is in the earth's shadow,  

DLR